Regional Weather Roundup
Issued by NWS

Home | Current Version | Previous Version | Graphics & Text | Print | Product List | Glossary On
Versions: 1 2 3 4 5 6 7 8 9 10 11 12 13 14 15 16 17 18 19 20 21 22 23 24 25 26 27 28 29 30 31 32 33 34 35 36 37 38 39 40 41 42 43 44 45 46 47 48 49 50
000
ASUS43 KFSD 311710
RWRSD

WEATHER ROUNDUP FOR SOUTH DAKOTA
NATIONAL WEATHER SERVICE SIOUX FALLS SD
1200 PM CDT FRI JUL 31 2015

NOTE: "FAIR" INDICATES FEW OR NO CLOUDS BELOW 12,000 FEET WITH NO
SIGNIFICANT WEATHER AND/OR OBSTRUCTIONS TO VISIBILITY.


SDZ001>005-009-010-012>017-311800-
NORTHWEST AND NORTH CENTRAL SOUTH DAKOTA

CITY           SKY/WX    TMP DP  RH WIND       PRES   REMARKS
BUFFALO          N/A     85  41  21 MISG      30.16S
FAITH            N/A     84  48  28 E3        30.20S
MOBRIDGE       SUNNY     82  55  39 S8        30.14F
$$

SDZ012>016-024>037-041>051-057-063-072>074-311800-
SOUTHWEST AND SOUTH CENTRAL SOUTH DAKOTA

CITY           SKY/WX    TMP DP  RH WIND       PRES   REMARKS
RAPID CTY ARPT SUNNY     80  55  42 N7        30.24S
PIERRE         SUNNY     82  53  36 SE10      30.15S
CUSTER         SUNNY     80  40  23 CALM      30.36F
ELLSWORTH AFB  SUNNY     80  52  37 N5        30.23S
PHILIP         SUNNY     81  58  45 NE3       30.18S
PINE RIDGE     SUNNY     87  54  32 N6        30.23S
SPEARFISH      FAIR      79  50  36 NE9       30.29R
WINNER         FAIR      87  61  41 E6        30.16S
$$

SDZ004>011-016>023-039-040-311800-
NORTHEAST SOUTH DAKOTA

CITY           SKY/WX    TMP DP  RH WIND       PRES   REMARKS
ABERDEEN       SUNNY     79  54  41 S6        30.14F
WATERTOWN      SUNNY     80  51  36 N6        30.16S
BROOKINGS      SUNNY     79  52  38 N6        30.18S
SISSETON         N/A     79  54  41 N8        30.12S
$$

SDZ017-020-022-023-036>040-048>070-311800-
SOUTHEAST SOUTH DAKOTA

CITY           SKY/WX    TMP DP  RH WIND       PRES   REMARKS
SIOUX FALLS    SUNNY     80  57  45 E8        30.16S
HURON          SUNNY     80  55  42 SE5       30.15S
CHAMBERLAIN    SUNNY     80  57  44 E8        30.16F
MITCHELL       SUNNY     80  59  48 E7        30.16F
YANKTON        SUNNY     81  70  69 E6        30.13S
$$

ABBREVIATIONS USED IN REMARKS
   TC - TEMPERATURE IN CELSIUS
  WCI - WIND CHILL INDEX
   HX - HEAT INDEX
  VSB - VISIBILITY



USA.gov is the U.S. government's official web portal to all federal, state and local government web resources and services.